Wind_Speed
43 41 53 68 58 63 57 60 60 57 54 51 46 36 34 29 19 22 15 17 16 16 18 19 24 23 24 24 23 22 13 11 10 13 16 19 24 27 30 31 36 44 42
40 41 53 63 59 68 59 63 61 61 52 46 44 34 32 27 22 19 18 17 18 19 22 26 28 17 21 16 10 11 14 18 22 23 23 23 19 24 28 30 34 40 38
38 43 52 59 61 67 66 65 61 60 58 55 51 39 35 33 30 22 23 22 22 24 29 26 20 19 16 12 9 9 9 13 17 20 22 22 14 15 23 27 29 32 32
38 45 53 52 56 64 65 61 63 63 57 58 53 43 37 34 30 25 28 26 27 29 32 30 27 24 27 27 14 13 15 12 14 20 18 16 15 14 17 22 26 27 27
43 49 52 47 50 61 64 62 60 58 61 57 54 43 40 39 36 35 30 32 34 29 29 35 33 31 24 23 21 19 25 25 19 19 21 21 23 22 20 20 22 27 33
46 47 47 48 46 47 55 66 61 53 56 59 59 48 47 45 47 40 33 35 37 38 34 38 36 36 33 25 25 25 30 27 28 29 27 27 29 28 29 31 37 39 38
48 43 45 45 47 47 48 54 62 55 48 55 56 54 49 47 43 41 36 39 40 38 36 37 35 33 33 25 27 31 28 30 31 32 33 33 35 36 33 33 33 35 40
46 45 44 45 48 50 45 49 52 49 50 51 54 54 54 49 43 43 40 39 44 42 38 40 39 38 34 35 26 28 32 36 36 37 39 40 41 40 40 39 39 42 43
44 41 43 43 48 51 50 45 39 44 50 51 52 54 54 50 45 45 43 44 44 40 43 43 41 39 41 41 43 37 35 36 38 43 43 46 47 48 46 45 47 47 51
39 37 39 40 45 49 52 50 46 46 53 53 53 52 52 53 51 48 46 43 43 44 43 40 43 41 42 44 44 43 39 41 45 46 46 51 51 50 50 50 52 55 58
34 34 37 40 44 44 46 49 49 50 58 59 56 52 50 50 49 47 46 47 44 43 43 45 46 44 42 43 45 47 44 46 47 49 53 54 51 52 52 56 61 63 60
32 35 37 36 39 42 45 49 49 50 55 62 58 54 55 51 52 50 51 45 47 45 45 49 50 46 48 50 50 48 50 51 53 53 56 56 55 59 59 54 55 53 53
33 35 34 35 36 39 41 45 45 48 57 63 61 59 51 46 46 46 46 51 50 50 54 53 50 51 50 51 53 54 59 56 55 59 55 56 57 56 54 53 51 51 52
32 30 30 30 31 33 34 39 39 45 54 60 56 56 56 55 49 50 49 49 47 53 52 52 51 55 56 58 58 59 56 58 59 54 58 62 59 52 49 51 52 52 53
30 27 25 25 33 33 34 29 30 28 37 42 54 50 48 51 45 46 47 46 50 50 54 54 55 57 56 58 60 61 62 60 57 61 55 51 51 52 53 54 55 55 57
28 26 29 36 34 34 34 35 36 36 36 34 42 42 52 49 54 51 50 51 52 51 53 56 57 60 62 62 63 65 62 62 58 54 53 54 55 54 52 53 52 52 52
26 28 29 34 33 37 40 39 41 42 43 44 37 44 44 46 51 51 54 56 55 57 58 61 63 62 63 67 64 66 64 54 54 56 54 53 51 49 48 49 50 52 52
24 32 29 35 34 31 31 36 34 36 33 33 41 45 46 47 48 48 52 54 56 59 61 65 65 66 63 62 57 54 57 56 54 51 48 48 51 53 54 55 57 59 60
23 36 33 33 34 32 31 38 40 39 39 41 42 41 45 48 50 51 52 56 58 59 61 61 60 61 67 60 55 52 49 47 48 50 54 55 57 59 59 61 63 65 66
25 26 34 35 35 37 37 37 38 40 43 43 43 45 47 51 55 57 57 59 60 58 58 67 66 55 50 47 46 47 49 50 53 54 56 55 58 59 62 63 66 68 69
30 27 25 35 35 41 38 38 43 45 45 43 45 49 54 56 57 57 56 58 63 64 61 52 52 51 51 51 51 53 56 58 59 61 63 63 63 65 68 68 70 72 74
35 34 33 31 31 35 40 46 49 51 51 53 54 55 57 61 62 63 59 56 54 51 50 50 52 54 55 56 58 60 62 64 66 68 68 71 72 74 77 76 77 78 77
41 39 38 38 37 35 35 36 39 42 44 44 46 45 45 45 47 49 49 50 51 53 54 55 57 60 63 65 67 69 69 70 70 72 75 75 77 82 84 83 84 85 85
45 46 46 45 43 43 43 43 44 44 45 46 48 50 50 50 51 53 55 56 56 58 60 63 63 64 64 66 69 71 73 73 74 76 79 80 85 88 87 86 85 87 87
47 48 49 49 50 50 50 49 49 52 54 54 55 56 57 57 58 60 61 62 63 65 67 68 69 69 71 73 76 76 76 78 81 82 84 88 91 92 90 90 91 94 93
53 52 53 55 55 56 57 56 57 58 59 60 62 64 65 67 67 68 69 70 73 74 73 75 76 77 78 79 80 82 82 84 86 88 91 94 95 94 94 96 98 100 102
Wind_Direction
266 240 222 212 215 211 215 210 221 231 241 247 246 248 270 267 260 281 266 298 297 294 281 289 313 294 278 282 279 279 268 289 301 303 294 287 280 272 276 276 269 250 254
256 230 219 216 215 209 218 220 223 230 231 237 242 253 265 255 274 270 261 272 277 276 278 291 308 310 281 278 275 289 284 280 278 288 288 291 290 274 272 272 258 252 257
244 226 217 216 217 207 216 221 224 230 234 240 242 246 251 259 268 256 269 268 274 287 279 292 315 305 300 283 304 310 302 293 284 294 295 283 301 300 289 269 260 256 268
237 222 216 214 218 212 212 221 224 225 233 238 242 241 246 253 247 257 261 272 266 280 289 279 295 306 291 283 288 303 307 295 297 302 301 295 298 299 301 288 274 280 279
226 221 217 214 219 218 219 221 216 227 232 237 239 238 241 247 237 266 267 266 259 273 267 279 285 302 286 274 284 289 303 296 295 294 301 308 290 291 284 273 263 268 277
221 219 217 220 219 223 225 223 222 229 230 237 242 240 245 237 254 262 258 258 259 267 269 272 282 294 292 269 276 295 301 292 294 294 297 299 299 297 278 273 278 282 288
220 219 222 227 225 229 229 231 230 236 232 235 240 243 243 243 248 254 259 259 256 266 271 277 285 285 280 269 279 283 287 294 295 296 298 298 307 298 298 284 279 279 281
221 224 229 230 228 230 231 232 232 236 230 230 231 235 243 243 250 250 254 252 258 267 272 273 282 282 272 274 278 283 284 290 291 293 295 297 298 299 292 283 278 280 280
225 231 235 237 236 234 232 230 226 224 231 233 232 230 236 241 242 250 246 258 257 260 268 272 277 275 273 276 270 289 289 290 299 293 293 295 295 294 293 291 292 291 289
229 234 237 240 238 239 237 236 234 229 230 228 233 234 235 240 239 240 252 251 251 259 267 270 277 273 270 278 271 286 290 289 293 292 291 294 294 293 292 291 291 288 287
234 237 240 239 239 237 235 233 233 235 226 229 229 231 233 235 236 242 238 249 257 262 267 267 268 269 273 283 286 284 283 287 291 293 291 296 289 289 288 288 290 288 288
241 245 246 246 243 238 235 232 232 232 226 224 224 227 231 237 242 249 249 250 254 257 260 267 270 272 279 275 278 279 280 286 287 288 292 290 292 294 295 291 291 288 287
244 248 251 248 242 237 232 230 233 231 218 222 226 228 232 237 242 246 249 256 262 261 262 268 265 271 276 279 280 284 283 284 288 291 293 293 295 288 290 290 292 292 291
244 252 249 241 227 216 219 225 229 231 219 223 228 235 237 238 243 251 254 259 263 258 263 267 268 273 274 277 278 278 284 291 293 291 292 292 287 287 289 291 292 292 294
250 249 229 224 197 206 215 221 226 218 225 231 233 233 238 240 242 252 254 256 261 263 264 266 268 272 275 276 277 279 288 291 289 291 290 287 288 291 291 289 289 292 290
253 239 212 197 197 205 211 215 225 227 232 234 233 236 241 245 245 242 247 254 259 264 269 272 271 270 275 277 278 287 290 289 289 283 283 285 290 293 295 295 294 293 291
247 231 215 205 207 211 220 226 228 237 236 237 236 236 236 238 243 247 250 254 260 264 266 268 272 273 276 281 283 281 282 282 282 283 288 291 295 298 298 295 294 295 297
243 221 221 215 212 214 222 216 228 239 229 227 232 237 241 245 247 248 253 258 261 263 265 268 271 275 280 284 283 280 279 281 283 287 289 290 291 291 294 296 296 296 296
241 217 229 226 222 216 221 223 227 231 233 238 235 241 244 244 248 253 255 258 258 265 269 273 277 278 281 280 281 282 283 283 284 287 291 295 296 295 295 294 294 294 294
231 230 219 227 235 223 224 229 237 238 240 242 241 243 245 246 250 255 260 265 268 268 272 274 278 277 277 278 278 279 280 282 285 287 289 288 292 294 295 295 293 293 293
233 235 233 230 225 234 237 235 235 237 242 243 246 247 249 253 258 260 262 264 266 268 272 272 273 275 275 278 280 282 283 284 283 283 282 285 289 290 291 292 293 293 295
233 238 238 238 239 234 228 235 240 242 242 244 248 250 250 253 255 259 261 262 264 266 268 271 274 276 278 279 280 281 282 283 284 285 284 285 289 292 294 292 292 292 293
233 238 243 245 243 245 247 243 240 239 239 241 244 246 247 251 254 258 261 265 266 268 270 271 273 276 278 280 282 282 283 284 285 285 286 289 290 291 292 293 294 293 293
239 242 243 245 246 246 249 251 252 252 251 251 253 254 255 257 257 260 264 266 268 271 274 275 275 276 277 278 279 281 282 284 286 286 286 287 290 291 292 292 293 294 292
241 244 246 248 250 251 250 250 253 255 255 255 256 257 258 259 262 265 267 270 273 274 275 275 276 277 277 278 278 278 279 280 281 283 283 285 287 289 290 291 291 291 291
244 248 252 253 253 254 254 255 255 255 257 259 259 259 260 261 263 265 266 267 269 270 273 274 275 277 277 278 278 279 279 281 282 284 286 288 291 292 292 292 292 291 289
Height
10661 10665 10671 10679 10687 10698 10703 10707 10707 10709 10713 10718 10727 10727 10733 10732 10735 10737 10738 10738 10737 10738 10738 10738 10738 10735 10733 10733 10732 10732 10732 10732 10732 10733 10732 10732 10732 10732 10732 10731 10730 10731 10732
10648 10653 10659 10668 10677 10686 10692 10696 10696 10699 10703 10709 10718 10724 10728 10726 10729 10732 10731 10733 10733 10733 10734 10735 10734 10731 10730 10730 10728 10728 10728 10728 10729 10729 10728 10727 10725 10725 10724 10723 10724 10725 10726
10637 10643 10649 10658 10666 10674 10679 10685 10689 10692 10696 10702 10709 10720 10723 10720 10724 10727 10727 10728 10730 10730 10729 10729 10729 10729 10728 10727 10725 10724 10724 10724 10725 10725 10723 10722 10720 10719 10719 10718 10718 10720 10722
10627 10634 10640 10648 10656 10664 10671 10677 10681 10685 10690 10695 10702 10713 10715 10715 10717 10722 10721 10723 10724 10724 10725 10725 10724 10725 10724 10724 10722 10722 10722 10720 10720 10720 10719 10718 10716 10715 10715 10714 10715 10715 10715
10620 10625 10632 10638 10646 10653 10659 10666 10673 10676 10681 10687 10694 10704 10708 10708 10711 10715 10715 10717 10719 10719 10719 10720 10721 10720 10720 10719 10718 10717 10717 10716 10716 10715 10714 10713 10712 10711 10711 10710 10709 10708 10707
10613 10618 10624 10629 10636 10641 10648 10657 10664 10669 10672 10678 10685 10694 10698 10704 10700 10705 10709 10710 10712 10713 10715 10714 10715 10715 10714 10714 10713 10712 10712 10712 10710 10710 10709 10707 10706 10706 10704 10703 10702 10701 10699
10606 10612 10616 10621 10627 10633 10639 10646 10653 10659 10664 10670 10677 10683 10689 10695 10695 10697 10702 10702 10704 10705 10707 10707 10708 10708 10709 10709 10708 10706 10706 10706 10705 10703 10702 10700 10698 10697 10696 10695 10693 10691 10690
10599 10604 10608 10614 10619 10624 10632 10638 10645 10650 10654 10662 10669 10673 10678 10685 10688 10688 10694 10695 10696 10698 10700 10700 10701 10701 10701 10701 10700 10699 10699 10699 10697 10696 10694 10692 10691 10689 10687 10686 10684 10682 10680
10593 10597 10602 10607 10612 10616 10623 10630 10637 10642 10646 10650 10659 10664 10667 10675 10679 10681 10684 10687 10689 10691 10692 10693 10693 10694 10693 10694 10692 10692 10691 10691 10690 10688 10686 10684 10682 10679 10677 10675 10673 10671 10669
10587 10591 10595 10599 10602 10607 10614 10621 10628 10633 10637 10641 10647 10653 10659 10663 10668 10673 10676 10678 10681 10684 10683 10685 10684 10685 10686 10686 10685 10684 10683 10682 10681 10679 10677 10675 10673 10669 10667 10665 10663 10661 10658
10580 10584 10586 10590 10593 10598 10604 10610 10619 10624 10628 10633 10638 10644 10650 10654 10658 10663 10667 10671 10672 10675 10675 10675 10677 10678 10679 10679 10676 10675 10674 10672 10670 10669 10668 10666 10664 10661 10658 10655 10652 10649 10646
10574 10576 10578 10581 10584 10589 10594 10600 10607 10614 10620 10625 10629 10635 10641 10646 10649 10654 10658 10661 10663 10666 10666 10666 10667 10669 10668 10666 10667 10667 10665 10662 10661 10659 10657 10654 10650 10647 10644 10641 10638 10635 10632
10567 10567 10570 10572 10576 10580 10586 10591 10597 10605 10610 10616 10621 10627 10632 10636 10641 10645 10649 10651 10652 10654 10656 10658 10658 10658 10658 10656 10654 10654 10653 10652 10649 10646 10642 10640 10637 10635 10632 10629 10626 10622 10619
10559 10562 10562 10564 10568 10573 10579 10585 10592 10597 10603 10608 10614 10619 10624 10630 10634 10638 10640 10640 10641 10643 10645 10648 10649 10648 10647 10647 10646 10645 10641 10637 10635 10632 10630 10628 10626 10623 10621 10617 10614 10612 10609
10552 10556 10557 10559 10564 10571 10576 10582 10587 10592 10598 10602 10606 10612 10616 10621 10625 10628 10627 10629 10631 10634 10636 10637 10637 10637 10637 10635 10632 10631 10629 10626 10622 10619 10617 10615 10614 10611 10609 10606 10603 10600 10596
10548 10550 10553 10557 10562 10567 10572 10578 10583 10588 10592 10596 10599 10603 10607 10609 10612 10616 10619 10623 10624 10625 10624 10626 10625 10624 10624 10623 10621 10618 10614 10611 10608 10606 10604 10603 10601 10598 10595 10592 10589 10585 10581
10543 10544 10549 10554 10558 10563 10568 10573 10577 10580 10584 10587 10591 10594 10596 10598 10603 10608 10611 10613 10615 10616 10614 10611 10613 10612 10609 10609 10606 10605 10601 10597 10595 10594 10592 10590 10588 10586 10583 10580 10576 10573 10570
10538 10540 10543 10548 10553 10557 10561 10566 10570 10572 10575 10578 10582 10585 10588 10591 10595 10597 10600 10603 10605 10605 10605 10600 10600 10600 10597 10594 10592 10590 10587 10584 10583 10581 10581 10580 10578 10574 10572 10569 10565 10560 10557
10533 10536 10537 10542 10547 10551 10555 10558 10561 10564 10568 10571 10573 10576 10579 10582 10585 10587 10588 10590 10592 10595 10594 10589 10587 10587 10584 10582 10579 10575 10573 10572 10570 10569 10567 10566 10562 10560 10559 10555 10551 10546 10542
10527 10529 10533 10536 10540 10545 10548 10552 10555 10558 10560 10563 10567 10569 10571 10573 10573 10574 10577 10578 10579 10580 10579 10575 10572 10573 10569 10570 10567 10564 10561 10561 10558 10557 10555 10554 10550 10547 10543 10539 10535 10530 10526
10521 10524 10527 10530 10533 10537 10540 10543 10545 10548 10551 10554 10556 10559 10559 10561 10562 10563 10563 10563 10564 10564 10564 10561 10558 10557 10557 10556 10555 10552 10549 10547 10546 10544 10540 10538 10536 10532 10529 10525 10520 10514 10509
10514 10517 10520 10522 10526 10529 10532 10534 10536 10539 10541 10543 10545 10547 10549 10549 10549 10550 10549 10549 10550 10551 10550 10549 10547 10545 10543 10541 10540 10539 10537 10533 10532 10526 10521 10518 10515 10512 10509 10506 10501 10496 10491
10505 10508 10511 10514 10517 10520 10523 10525 10526 10528 10530 10532 10532 10533 10536 10537 10537 10537 10537 10538 10538 10537 10537 10536 10535 10532 10530 10527 10524 10521 10519 10517 10515 10509 10503 10500 10496 10492 10488 10485 10479 10475 10469
10496 10499 10501 10504 10507 10510 10513 10515 10516 10518 10519 10520 10520 10521 10522 10525 10525 10522 10523 10523 10523 10522 10521 10520 10520 10517 10516 10513 10509 10505 10501 10499 10496 10492 10486 10482 10478 10472 10467 10463 10459 10454 10448
10485 10488 10490 10493 10495 10498 10501 10503 10505 10505 10506 10507 10507 10507 10507 10509 10510 10510 10509 10508 10508 10506 10505 10503 10502 10502 10500 10496 10492 10488 10486 10482 10479 10475 10470 10465 10460 10453 10446 10440 10434 10429 10423
10473 10475 10478 10481 10483 10484 10486 10489 10490 10492 10493 10494 10493 10492 10493 10493 10493 10493 10493 10493 10491 10489 10488 10486 10483 10482 10479 10476 10472 10468 10465 10461 10457 10453 10446 10439 10432 10427 10422 10414 10407 10401 10395